Jonesboro, AR

3:52 PM CDT on June 24, 2017 (GMT -0500)
Jonesboro Municipal

Weather History for KJBR - May, 2014

Change the Weather History Date:

Saturday, May 10, 2014

  Actual Average Record
Temperature  
Mean Temperature 74 °F 67 °F  
Max Temperature 82 °F 78 °F 91 °F (1962)
Min Temperature 65 °F 57 °F 36 °F (1966)
Degree Days  
Heating Degree Days 0 2  
Month to date heating degree days 20 22  
Since 1 July heating degree days 4106 3637  
Cooling Degree Days 9 4  
Month to date cooling degree days 63 31  
Year to date cooling degree days 84 78  
Growing Degree Days 23 (Base 50)    
Moisture  
Dew Point 65 °F    
Average Humidity 74    
Maximum Humidity 93    
Minimum Humidity 55    
Precipitation  
Precipitation 0.08 in 0.16 in 1.80 in (2010)
Month to date precipitation 1.40 1.92  
Year to date precipitation 18.10 18.59  
Snow  
Snow 0.00 in - - ()
Month to date snowfall 0.0  
Snow Depth 0.00 in    
Sea Level Pressure  
Sea Level Pressure 29.93 in    
Wind  
Wind Speed 8 mph (SSW)    
Max Wind Speed 15 mph    
Max Gust Speed 18 mph    
Visibility 10 miles    
Events Rain , Thunderstorm    
T = Trace of Precipitation, MM = Missing Value Source: NWS Daily Summary

Daily Weather History Graph

Daily Weather History Graph

Search for Another Location

Airport or City:

Trip Planner

Search our weather history database for the weather conditions in past years. The results will help you decide how hot, cold, wet, or windy it might be!

Date:

Astronomy

May. 10, 2014 Rise Set
Actual Time 6:01 AM CDT 7:57 PM CDT
Civil Twilight 5:33 AM CDT 8:25 PM CDT
Nautical Twilight 4:59 AM CDT 8:59 PM CDT
Astronomical Twilight 4:22 AM CDT 9:35 PM CDT
Moon 4:00 PM CDT (5/10) 3:25 AM CDT (5/10)
Length of Visible Light 14h 51m
Length of Day
13h 55m
Waxing Gibbous, 82% of the Moon is Illuminated
May 10
Waxing Gibbous
May 14
Full
May 21
Last Quarter
May 28
New
Jun 5
First Quarter

Hourly Weather History & Observations

Time (CDT) Temp. Heat Index Dew Point Humidity Pressure Visibility Wind Dir Wind Speed Gust Speed Precip Events Conditions
12:53 AM 70.0 °F - 64.9 °F 84% 29.92 in 10.0 mi SSW 6.9 mph - N/A   Overcast
1:53 AM 69.1 °F - 64.9 °F 87% 29.91 in 10.0 mi SSW 8.1 mph - N/A   Overcast
2:34 AM 69.8 °F - 64.4 °F 83% 29.92 in 10.0 mi SSW 9.2 mph - N/A   Overcast
2:53 AM 69.1 °F - 64.9 °F 87% 29.91 in 10.0 mi SSW 8.1 mph - N/A   Overcast
3:10 AM 69.8 °F - 64.4 °F 83% 29.92 in 10.0 mi SSW 9.2 mph - N/A Thunderstorm Thunderstorm
3:33 AM 68.0 °F - 66.2 °F 94% 29.91 in 10.0 mi SSW 5.8 mph - 0.08 in Rain , Thunderstorm Light Thunderstorms and Rain
3:53 AM 68.0 °F - 64.9 °F 90% 29.90 in 10.0 mi SSW 10.4 mph - 0.08 in Thunderstorm Mostly Cloudy
4:05 AM 68.0 °F - 64.4 °F 88% 29.90 in 10.0 mi SSW 11.5 mph - N/A   Mostly Cloudy
4:20 AM 68.0 °F - 64.4 °F 88% 29.90 in 10.0 mi SSW 9.2 mph - N/A   Mostly Cloudy
4:36 AM 68.0 °F - 64.4 °F 88% 29.90 in 10.0 mi SW 6.9 mph - N/A   Overcast
4:53 AM 66.9 °F - 64.0 °F 90% 29.89 in 10.0 mi SSW 6.9 mph - N/A   Overcast
5:02 AM 66.2 °F - 64.4 °F 94% 29.90 in 10.0 mi South 5.8 mph - N/A   Overcast
5:38 AM 66.2 °F - 64.4 °F 94% 29.90 in 10.0 mi South 5.8 mph - N/A   Scattered Clouds
5:53 AM 66.2 °F - 62.6 °F 88% 29.91 in 10.0 mi Calm Calm - N/A   Partly Cloudy
6:22 AM 64.4 °F - 62.6 °F 94% 29.93 in 10.0 mi SW 3.5 mph - N/A   Mostly Cloudy
6:53 AM 66.0 °F - 64.0 °F 93% 29.95 in 10.0 mi SSW 4.6 mph - N/A   Overcast
7:10 AM 66.2 °F - 64.4 °F 94% 29.95 in 10.0 mi South 4.6 mph - N/A Thunderstorm Overcast
7:20 AM 66.2 °F - 64.4 °F 94% 29.96 in 10.0 mi South 4.6 mph - N/A Thunderstorm Overcast
7:38 AM 66.2 °F - 64.4 °F 94% 29.96 in 10.0 mi SSW 3.5 mph - N/A Thunderstorm Mostly Cloudy
7:45 AM 66.2 °F - 64.4 °F 94% 29.96 in 10.0 mi Calm Calm - N/A   Overcast
7:53 AM 66.9 °F - 64.0 °F 90% 29.96 in 10.0 mi West 3.5 mph - N/A   Overcast
7:56 AM 66.2 °F - 64.4 °F 94% 29.96 in 10.0 mi Calm Calm - N/A   Overcast
8:53 AM 70.0 °F - 64.9 °F 84% 29.97 in 10.0 mi SSW 8.1 mph - N/A   Partly Cloudy
9:09 AM 71.6 °F - 64.4 °F 78% 29.98 in 10.0 mi SSW 9.2 mph - N/A   Mostly Cloudy
9:36 AM 71.6 °F - 64.4 °F 78% 29.98 in 10.0 mi South 5.8 mph - N/A   Mostly Cloudy
9:53 AM 72.0 °F - 64.9 °F 78% 29.98 in 10.0 mi SSW 5.8 mph - N/A   Mostly Cloudy
10:20 AM 73.4 °F - 66.2 °F 78% 29.98 in 10.0 mi SSW 8.1 mph - N/A   Scattered Clouds
10:53 AM 75.0 °F - 66.0 °F 73% 29.97 in 10.0 mi SW 10.4 mph 18.4 mph N/A   Scattered Clouds
11:08 AM 75.2 °F - 64.4 °F 69% 29.98 in 10.0 mi SW 10.4 mph - N/A   Mostly Cloudy
11:15 AM 75.2 °F - 64.4 °F 69% 29.97 in 10.0 mi SSW 11.5 mph - N/A   Mostly Cloudy
11:53 AM 78.1 °F - 66.9 °F 68% 29.97 in 10.0 mi SW 11.5 mph - N/A   Mostly Cloudy
12:53 PM 79.0 °F - 66.9 °F 66% 29.95 in 10.0 mi SSW 9.2 mph - N/A   Mostly Cloudy
1:07 PM 78.8 °F - 66.2 °F 65% 29.95 in 10.0 mi SSW 8.1 mph - N/A   Mostly Cloudy
1:15 PM 78.8 °F - 66.2 °F 65% 29.95 in 10.0 mi SW 6.9 mph - N/A   Scattered Clouds
1:31 PM 78.8 °F - 66.2 °F 65% 29.94 in 10.0 mi SSW 11.5 mph - N/A   Mostly Cloudy
1:38 PM 78.8 °F - 66.2 °F 65% 29.94 in 10.0 mi South 10.4 mph - N/A   Mostly Cloudy
1:53 PM 79.0 °F - 66.0 °F 64% 29.94 in 10.0 mi SSW 13.8 mph - N/A   Mostly Cloudy
2:24 PM 78.8 °F - 66.2 °F 65% 29.94 in 10.0 mi South 9.2 mph - N/A   Overcast
2:32 PM 80.6 °F 82.7 °F 66.2 °F 61% 29.93 in 10.0 mi South 11.5 mph - N/A   Mostly Cloudy
2:39 PM 78.8 °F - 66.2 °F 65% 29.93 in 10.0 mi SSW 10.4 mph - N/A   Mostly Cloudy
2:46 PM 78.8 °F - 66.2 °F 65% 29.93 in 10.0 mi SSW 9.2 mph - N/A   Mostly Cloudy
2:53 PM 79.0 °F - 66.0 °F 64% 29.92 in 10.0 mi SW 10.4 mph - N/A   Mostly Cloudy
3:53 PM 81.0 °F 83.3 °F 66.9 °F 62% 29.90 in 10.0 mi South 13.8 mph - N/A   Partly Cloudy
4:53 PM 82.0 °F 84.1 °F 66.0 °F 58% 29.89 in 10.0 mi South 9.2 mph - N/A   Partly Cloudy
5:53 PM 82.0 °F 83.8 °F 64.9 °F 56% 29.88 in 10.0 mi South 10.4 mph - N/A   Mostly Cloudy
6:53 PM 80.1 °F 81.9 °F 64.9 °F 60% 29.88 in 10.0 mi South 9.2 mph - N/A   Clear
7:53 PM 77.0 °F - 66.9 °F 71% 29.88 in 10.0 mi South 4.6 mph - N/A   Clear
8:53 PM 75.0 °F - 66.0 °F 73% 29.90 in 10.0 mi South 3.5 mph - N/A   Clear
9:53 PM 73.4 °F - 66.2 °F 78% 29.92 in 10.0 mi SE 3.5 mph - N/A   Clear
10:53 PM 73.0 °F - 66.0 °F 79% 29.93 in 10.0 mi SSE 4.6 mph - N/A   Clear
11:53 PM 72.0 °F - 64.9 °F 78% 29.93 in 10.0 mi South 6.9 mph - N/A   Clear